Date,TemperatureHighF,TemperatureAvgF,TemperatureLowF,DewpointHighF,DewpointAvgF,DewpointLowF,HumidityHigh,HumidityAvg,HumidityLow,PressureMaxIn,PressureMinIn,WindSpeedMaxMPH,WindSpeedAvgMPH,GustSpeedMaxMPH,PrecipitationSumIn
2013-6-1,93,79,64,62,42,29,83,36,11,30.00,29.85,0,0,0,0.00
2013-6-2,89,79,72,61,40,28,69,28,13,29.85,29.79,0,0,0,0.00
2013-6-3,83,71,55,59,38,20,81,37,14,29.97,29.82,0,0,0,0.00
2013-6-4,84,64,45,42,27,14,78,30,13,30.12,29.97,0,0,0,0.00
2013-6-5,82,65,46,46,30,18,78,35,14,30.21,30.03,0,0,0,0.00
2013-6-6,68,64,60,59,39,21,84,47,17,30.06,29.88,0,0,0,0.00
2013-6-7,68,65,63,62,60,58,87,85,82,29.88,29.70,0,0,0,0.00
2013-6-8,80,68,57,61,47,24,87,56,15,30.09,29.73,0,0,0,0.00
2013-6-9,89,70,53,61,42,27,89,48,13,30.21,30.09,0,0,0,0.00
2013-6-10,73,69,67,66,62,40,88,78,33,30.12,29.76,0,0,0,0.00
2013-6-11,84,72,64,65,48,34,89,50,20,29.82,29.73,0,0,0,0.00
2013-6-12,90,74,62,62,44,28,85,42,12,29.88,29.79,0,0,0,0.00
2013-6-13,80,69,63,64,54,37,88,63,24,29.82,29.47,0,0,0,0.00
2013-6-14,81,69,59,54,38,25,79,40,14,31.27,29.67,0,0,0,0.00
2013-6-15,87,70,55,58,38,22,86,42,13,31.74,31.24,0,0,0,0.00
2013-6-16,85,70,58,56,40,31,66,38,16,31.74,30.50,0,0,0,0.00
2013-6-17,93,76,64,62,44,27,83,41,11,31.03,30.56,0,0,0,0.00
2013-6-18,82,70,60,59,46,31,85,50,17,31.74,30.80,0,0,0,0.00
2013-6-21,86,79,70,59,32,24,68,19,13,31.74,31.74,0,0,0,0.00
2013-6-22,90,76,58,55,36,22,76,30,12,31.74,31.74,0,0,0,0.00
2013-6-23,92,78,65,66,49,35,86,44,14,31.74,31.74,0,0,0,0.00
2013-6-24,94,78,65,66,53,36,86,49,14,31.74,31.74,0,0,0,0.00
2013-6-25,93,77,68,69,57,35,87,58,14,31.74,31.74,0,0,0,0.00
2013-6-26,91,76,69,66,52,31,85,50,12,31.74,31.74,0,0,0,0.00
2013-6-27,84,72,66,70,63,42,89,76,23,31.74,31.74,0,0,0,0.00
2013-6-28,87,75,69,69,58,38,88,64,18,31.74,31.74,0,0,0,0.00
2013-6-29,90,74,62,65,50,29,90,55,12,31.74,31.74,0,0,0,0.00
2013-6-30,94,76,63,67,54,35,88,58,14,31.74,31.74,0,0,0,0.00